KQ4KX Weather Reports


time (UTC)temp
F
wind
direction
speed
knots
gust
knots
rain 1hr
in
rain 24hr
in
rain mn
in
humidity
%
barometer
mb
20260906180645 91 292 2.6 6.1 0.00 0.04 0.00 74 1012.6
20260906180236 91 292 2.6 6.1 0.00 0.04 0.00 74 1012.6
20260906175706 91 290 3.5 7.8 0.00 0.04 0.00 75 1012.6
20260906173536 91 296 2.6 6.1 0.00 0.04 0.00 71 1012.6
20260906173006 91 290 2.6 6.1 0.00 0.04 0.00 72 1012.6
20260906172506 91 284 2.6 6.1 0.00 0.04 0.00 71 1012.7
20260906171406 92 275 2.6 7.0 0.00 0.04 0.00 70 1012.8
20260906171301 91 261 2.6 8.7 0.00 0.04 0.00 71 1012.9
20260906170836 91 261 2.6 8.7 0.00 0.04 0.00 71 1012.9
20260906170306 91 258 2.6 8.7 0.00 0.04 0.00 75 1012.8
20260906165806 91 263 2.6 6.1 0.00 0.04 0.00 73 1013.0
20260906165307 90 259 2.6 8.7 0.00 0.04 0.00 72 1013.0
20260906164206 90 282 1.7 6.1 0.00 0.04 0.00 75 1013.1
20260906154406 89 223 1.7 6.1 0.00 0.04 0.00 78 1013.9
20260906153906 88 225 1.7 5.2 0.00 0.04 0.00 78 1013.9
20260906152907 89 297 1.7 3.5 0.00 0.04 0.00 79 1013.8
20260906152336 89 300 1.7 3.5 0.00 0.04 0.00 78 1013.9
20260906145236 87 294 0.9 2.6 0.00 0.04 0.00 82 1014.1
20260906143706 86 312 0.9 2.6 0.00 0.04 0.00 83 1014.1
20260906140536 84 293 0.9 2.6 0.00 0.04 0.00 88 1014.2
20260906140036 84 272 0.9 2.6 0.00 0.04 0.00 90 1014.2
20260906135506 83 276 0.9 2.6 0.00 0.04 0.00 89 1014.3
20260906135006 83 325 0.9 2.6 0.00 0.04 0.00 90 1014.3
20260906134650 83 341 0.9 1.7 0.00 0.04 0.00 91 1014.2
20260906134506 83 341 0.9 1.7 0.00 0.04 0.00 91 1014.2
20260906133936 82 312 0.9 2.6 0.00 0.04 0.00 92 1014.3
20260906133406 82 282 0.9 2.6 0.00 0.04 0.00 92 1014.4
20260906131116 81 259 0.0 0.9 0.00 0.04 0.00 94 1014.4
20260906130836 81 259 0.0 0.9 0.00 0.04 0.00 94 1014.4
20260906125806 80 263 0.9 2.6 0.00 0.04 0.00 94 1014.2
20260906123536 79 239 1.7 3.5 0.00 0.04 0.00 96 1014.0
20260906123206 79 239 1.7 3.5 0.00 0.04 0.00 96 1014.0
20260906123026 78 230 0.9 3.5 0.00 0.04 0.00 97 1013.9
20260906122705 78 230 0.9 3.5 0.00 0.04 0.00 97 1013.9
20260906122459 78 228 0.9 2.6 0.00 0.04 0.00 97 1013.9
20260906122206 78 228 0.9 2.6 0.00 0.04 0.00 97 1013.9
20260906121706 78 237 0.9 2.6 0.00 0.04 0.00 98 1013.8
20260906120136 77 235 0.9 2.6 0.00 0.04 0.00 100 1013.8
20260906114036 76 248 0.0 0.9 0.00 0.04 0.00 100 1013.7
20260906113536 75 248 0.0 0.9 0.00 0.04 0.00 100 1013.5
20260906113036 75 248 0.0 0.9 0.00 0.04 0.00 100 1013.4
20260906111436 75 0 0.0 0.0 0.00 0.04 0.00 99 1013.5
20260906110114 75 0 0.0 0.0 0.00 0.04 0.00 99 1013.2
20260906105907 75 0 0.0 0.0 0.00 0.04 0.00 99 1013.2
20260906105637 75 0 0.0 0.0 0.00 0.04 0.00 99 1013.2
20260906105407 75 0 0.0 0.0 0.00 0.04 0.00 99 1013.2
20260906103836 75 248 0.9 0.9 0.00 0.04 0.00 99 1012.6
20260906103520 75 248 0.0 1.7 0.00 0.04 0.00 99 1012.6
20260906103305 75 248 0.0 1.7 0.00 0.04 0.00 99 1012.6
20260906102806 76 248 0.0 1.7 0.00 0.04 0.00 99 1012.6
20260906102306 76 248 0.0 1.7 0.00 0.04 0.00 99 1012.5
20260906101806 76 248 0.9 1.7 0.00 0.04 0.00 99 1012.3
20260906100958 75 244 0.9 1.7 0.00 0.04 0.00 99 1012.2
20260906100706 75 244 0.9 1.7 0.00 0.04 0.00 99 1012.2
20260906100206 75 244 0.0 1.7 0.00 0.04 0.00 99 1012.2
20260906095706 75 0 0.0 0.0 0.00 0.04 0.00 99 1012.3
20260906095028 91 325 0.9 2.6 0.00 0.00 0.00 71 1014.2
20260906095026 92 324 0.9 2.6 0.00 0.00 0.00 71 1014.4
20260906095021 92 303 0.9 2.6 0.00 0.00 0.00 73 1014.4
20260906094036 76 0 0.0 0.0 0.00 0.04 0.00 98 1012.4
20260906093536 76 244 0.0 0.9 0.00 0.04 0.00 98 1012.4
20260906093036 76 244 0.0 1.7 0.00 0.04 0.00 98 1012.2
20260906091936 76 244 0.0 0.9 0.00 0.04 0.00 98 1012.1
20260906091436 76 244 0.0 0.9 0.00 0.04 0.00 98 1012.0
20260906090408 76 244 0.0 0.9 0.00 0.04 0.00 98 1011.9
20260906085651 76 241 1.7 3.5 0.00 0.04 0.00 98 1011.8
20260906085406 76 241 1.7 3.5 0.00 0.04 0.00 98 1011.8
20260906084117 76 239 1.7 2.6 0.00 0.04 0.00 98 1011.8
20260906083835 76 239 1.7 2.6 0.00 0.04 0.00 98 1011.8
20260906083337 76 237 1.7 2.6 0.00 0.04 0.00 98 1011.8
20260906082806 76 236 1.7 4.3 0.00 0.04 0.00 97 1011.8
20260906082500 76 243 1.7 4.3 0.00 0.04 0.00 97 1011.8
20260906082306 76 243 1.7 4.3 0.00 0.04 0.00 97 1011.8
20260906081003 76 249 0.9 2.6 0.00 0.04 0.00 97 1011.7
20260906080806 76 249 0.9 2.6 0.00 0.04 0.00 97 1011.7
20260906080438 76 243 0.9 2.6 0.00 0.04 0.00 97 1011.7
20260906080235 76 243 0.9 2.6 0.00 0.04 0.00 97 1011.7
20260906075235 76 238 0.9 2.6 0.00 0.04 0.00 97 1011.8
20260906074939 77 238 0.9 2.6 0.00 0.04 0.00 97 1011.8
20260906074735 77 238 0.9 2.6 0.00 0.04 0.00 97 1011.8
20260906072636 77 235 1.7 2.6 0.00 0.04 0.00 96 1011.8
20260906072106 77 243 1.7 2.6 0.00 0.04 0.00 95 1011.9
20260906071606 77 246 1.7 3.5 0.00 0.04 0.00 95 1012.0
20260906070036 77 255 1.7 2.6 0.00 0.04 0.00 95 1012.3
20260906065505 77 251 0.9 2.6 0.00 0.04 0.00 95 1012.4
20260906064338 77 251 1.7 2.6 0.00 0.04 0.00 95 1012.7
20260906063936 77 251 1.7 2.6 0.00 0.04 0.00 95 1012.7
20260906063436 77 254 1.7 2.6 0.00 0.04 0.00 96 1012.7
20260906063107 77 253 0.9 2.6 0.00 0.04 0.00 96 1012.8
20260906062936 77 253 0.9 2.6 0.00 0.04 0.00 96 1012.8
20260906061406 77 259 0.9 1.7 0.00 0.04 0.00 96 1013.1
20260906055336 77 241 1.7 2.6 0.00 0.04 0.00 96 1013.2
20260906055006 77 250 0.9 2.6 0.00 0.04 0.00 96 1013.3
20260906054805 77 250 0.9 2.6 0.00 0.04 0.00 96 1013.3
20260906052933 77 240 0.9 1.7 0.00 0.04 0.00 96 1013.5
20260906052706 77 240 0.9 1.7 0.00 0.04 0.00 96 1013.5
20260906051135 77 237 0.9 1.7 0.00 0.04 0.00 95 1013.4
20260906050635 77 235 0.9 1.7 0.00 0.04 0.00 95 1013.5
20260906050135 78 236 0.9 1.7 0.00 0.04 0.00 94 1013.4
20260906045808 78 236 0.0 1.7 0.00 0.04 0.00 94 1013.6
20260906045605 78 236 0.0 1.7 0.00 0.04 0.00 94 1013.6
20260906045106 78 236 0.0 0.9 0.00 0.04 0.00 94 1013.7
20260906044240 78 238 1.7 5.2 0.00 0.04 0.00 93 1013.7
20260906044036 78 238 1.7 5.2 0.00 0.04 0.00 93 1013.7
20260906043728 78 238 2.6 5.2 0.00 0.04 0.00 94 1013.6
20260906043505 78 238 2.6 5.2 0.00 0.04 0.00 94 1013.6
20260906035806 78 239 1.7 4.3 0.00 0.04 0.04 94 1013.8
20260906035306 79 241 2.6 7.0 0.00 0.04 0.04 93 1013.9
20260906033705 79 230 1.7 7.0 0.00 0.04 0.04 92 1013.6
20260906032705 79 231 1.7 4.3 0.00 0.04 0.04 92 1013.7
20260906032136 80 204 1.7 5.2 0.00 0.04 0.04 91 1013.9
20260906031635 80 202 1.7 5.2 0.00 0.04 0.04 91 1013.8
20260906031334 80 208 1.7 6.1 0.00 0.04 0.04 91 1013.8
20260906031136 80 208 1.7 6.1 0.00 0.04 0.04 91 1013.8
20260906030818 80 199 1.7 6.1 0.00 0.04 0.04 91 1013.9
20260906030635 80 199 1.7 6.1 0.00 0.04 0.04 91 1013.9
20260906030106 80 195 1.7 3.5 0.00 0.04 0.04 91 1013.8
20260906025606 80 187 2.6 7.8 0.00 0.04 0.04 90 1013.8
20260906025035 80 182 2.6 6.1 0.00 0.04 0.04 90 1013.7
20260906024535 80 186 1.7 7.0 0.00 0.04 0.04 90 1013.7
20260906024006 80 198 1.7 7.0 0.00 0.04 0.04 89 1013.9
20260906023614 80 195 1.7 5.2 0.00 0.04 0.04 89 1013.8
20260906023435 80 195 1.7 5.2 0.00 0.04 0.04 89 1013.8
20260906023104 80 192 1.7 5.2 0.00 0.04 0.04 89 1013.8
20260906022906 80 192 1.7 5.2 0.00 0.04 0.04 89 1013.8
20260906021835 81 177 2.6 5.2 0.00 0.04 0.04 89 1014.1
20260906021305 81 182 1.7 5.2 0.00 0.04 0.04 89 1014.0
20260906020736 81 197 1.7 6.1 0.00 0.04 0.04 88 1013.8
20260906014833 81 172 1.7 6.1 0.00 0.04 0.04 88 1013.9
20260906014635 81 172 1.7 6.1 0.00 0.04 0.04 88 1013.9
20260906013536 81 112 2.6 9.6 0.00 0.04 0.04 90 1013.7
20260906013006 80 109 1.7 9.6 0.00 0.04 0.04 92 1013.7
20260906011935 80 178 0.0 0.9 0.00 0.04 0.04 91 1013.4
20260906011701 80 178 0.0 0.9 0.00 0.04 0.04 91 1013.3
20260906011436 80 178 0.0 0.9 0.00 0.04 0.04 91 1013.3
20260906011155 80 178 0.0 0.9 0.00 0.04 0.04 91 1013.1
20260906010905 80 178 0.0 0.9 0.00 0.04 0.04 91 1013.1
20260906010625 80 178 0.0 0.9 0.00 0.04 0.04 91 1013.0
20260906010336 80 178 0.0 0.9 0.00 0.04 0.04 91 1013.0
20260906004305 81 178 0.0 0.9 0.00 0.04 0.04 89 1013.0
20260906004111 81 0 0.0 0.0 0.00 0.04 0.04 88 1013.0
20260906003806 81 0 0.0 0.0 0.00 0.04 0.04 88 1013.0
20260906003534 81 0 0.0 0.0 0.00 0.04 0.04 89 1012.9
20260906003307 81 0 0.0 0.0 0.00 0.04 0.04 89 1012.9
20260906003231 81 178 0.0 0.9 0.00 0.04 0.04 88 1013.0
20260906002806 81 178 0.0 0.9 0.00 0.04 0.04 88 1013.0
20260906002611 81 169 0.0 0.9 0.00 0.04 0.04 89 1013.0
20260906002306 81 169 0.0 0.9 0.00 0.04 0.04 89 1013.0
20260906001944 82 135 0.0 0.9 0.00 0.04 0.04 89 1013.0
20260906001736 82 135 0.0 0.9 0.00 0.04 0.04 89 1013.0
20260906001528 82 146 0.9 1.7 0.00 0.04 0.04 89 1013.1
20260906001205 82 146 0.9 1.7 0.00 0.04 0.04 89 1013.1
20260906000831 82 169 0.9 1.7 0.00 0.04 0.04 89 1013.1
20260906000635 82 169 0.9 1.7 0.00 0.04 0.04 89 1013.1
20260906000105 82 183 0.9 1.7 0.00 0.04 0.04 89 1013.0
20260905234535 82 148 0.0 2.6 0.00 0.04 0.04 88 1012.5
20260905233629 82 180 0.9 1.7 0.00 0.04 0.04 88 1012.3
20260905233506 82 180 0.9 1.7 0.00 0.04 0.04 88 1012.3
20260905233309 82 227 0.9 2.6 0.00 0.04 0.04 88 1012.4
20260905233005 82 227 0.9 2.6 0.00 0.04 0.04 88 1012.4
20260905232705 83 215 0.0 2.6 0.00 0.04 0.04 88 1012.4
20260905232505 83 215 0.0 2.6 0.00 0.04 0.04 88 1012.4
20260905231935 83 114 0.9 3.5 0.00 0.04 0.04 88 1012.6
20260905231708 83 102 1.7 3.5 0.00 0.04 0.04 88 1012.7
20260905231436 83 102 1.7 3.5 0.00 0.04 0.04 88 1012.7
20260905230905 83 97 1.7 3.5 0.00 0.04 0.04 88 1012.6
20260905230115 83 111 0.9 3.5 0.00 0.04 0.04 89 1012.7
20260905225835 83 111 0.9 3.5 0.00 0.04 0.04 89 1012.7
20260905225336 83 153 0.9 3.5 0.00 0.04 0.04 89 1012.7
20260905225119 83 145 1.7 5.2 0.04 0.04 0.04 90 1012.7
20260905224835 83 145 1.7 5.2 0.04 0.04 0.04 90 1012.7
20260905223835 82 102 0.9 3.5 0.04 0.04 0.04 90 1012.8
20260905223603 82 109 0.9 2.6 0.04 0.04 0.04 89 1012.7
20260905223335 82 109 0.9 2.6 0.04 0.04 0.04 89 1012.7
20260905223119 82 93 0.9 2.6 0.04 0.04 0.04 88 1012.7
20260905222836 82 93 0.9 2.6 0.04 0.04 0.04 88 1012.7
20260905222021 82 53 0.9 1.7 0.04 0.04 0.04 89 1012.7
20260905221805 82 53 0.9 1.7 0.04 0.04 0.04 89 1012.7
20260905221041 82 36 1.7 4.3 0.04 0.04 0.04 90 1012.8
20260905220735 82 36 1.7 4.3 0.04 0.04 0.04 90 1012.8
20260905220456 82 29 1.7 4.3 0.04 0.04 0.04 87 1012.9
20260905220206 82 29 1.7 4.3 0.04 0.04 0.04 87 1012.9
20260905215135 85 17 2.6 7.0 0.02 0.02 0.02 78 1012.7
20260905214841 86 24 2.6 4.3 0.00 0.00 0.00 81 1012.8
20260905214605 86 24 2.6 4.3 0.00 0.00 0.00 81 1012.8
20260905214105 86 38 1.7 3.5 0.00 0.00 0.00 79 1012.9
20260905213759 86 39 1.7 3.5 0.00 0.00 0.00 80 1012.8
20260905213605 86 39 1.7 3.5 0.00 0.00 0.00 80 1012.8
20260905213405 86 20 2.6 5.2 0.00 0.00 0.00 80 1012.8
20260905213106 86 20 2.6 5.2 0.00 0.00 0.00 80 1012.8
20260905212823 85 23 1.7 5.2 0.00 0.00 0.00 80 1012.7
20260905212535 85 23 1.7 5.2 0.00 0.00 0.00 80 1012.7
20260905210935 85 280 1.7 6.1 0.00 0.00 0.00 80 1012.7
20260905210405 85 280 2.6 6.1 0.00 0.00 0.00 78 1012.5
20260905205905 85 274 3.5 7.8 0.00 0.00 0.00 75 1012.6
20260905204835 86 274 4.3 10.4 0.00 0.00 0.00 74 1012.7
20260905204305 88 274 4.3 10.4 0.00 0.00 0.00 76 1012.6
20260905203735 88 270 3.5 6.1 0.00 0.00 0.00 72 1012.6
20260905203538 89 271 4.3 11.3 0.00 0.00 0.00 72 1012.5
20260905203235 89 271 4.3 11.3 0.00 0.00 0.00 72 1012.5
20260905202705 90 272 3.5 11.3 0.00 0.00 0.00 70 1012.4
20260905202205 92 281 2.6 8.7 0.00 0.00 0.00 71 1012.3
20260905201635 93 305 1.7 5.2 0.00 0.00 0.00 70 1012.3
20260905201105 93 301 1.7 6.1 0.00 0.00 0.00 66 1012.4
20260905200605 94 290 1.7 6.1 0.00 0.00 0.00 64 1012.3
20260905200358 94 289 1.7 5.2 0.00 0.00 0.00 64 1012.4
20260905200105 94 289 1.7 5.2 0.00 0.00 0.00 64 1012.4
20260905195535 94 292 2.6 7.0 0.00 0.00 0.00 65 1012.5
20260905195005 94 288 2.6 7.0 0.00 0.00 0.00 65 1012.4
20260905194435 94 287 1.7 5.2 0.00 0.00 0.00 66 1012.5
20260905193935 93 284 1.7 7.0 0.00 0.00 0.00 68 1012.4
20260905193405 93 272 1.7 7.0 0.00 0.00 0.00 68 1012.6
20260905192835 93 263 2.6 8.7 0.00 0.00 0.00 68 1012.7
20260905192549 92 262 3.5 8.7 0.00 0.00 0.00 68 1012.7
20260905192306 92 262 3.5 8.7 0.00 0.00 0.00 68 1012.7
20260905191646 93 298 1.7 6.1 0.00 0.00 0.00 67 1012.9
20260905191235 93 298 1.7 6.1 0.00 0.00 0.00 67 1012.9
20260905191140 94 303 1.7 6.1 0.00 0.00 0.00 67 1012.9
20260905190735 94 303 1.7 6.1 0.00 0.00 0.00 67 1012.9
20260905190624 94 302 1.7 5.2 0.00 0.00 0.00 68 1012.9
20260905190205 94 302 1.7 5.2 0.00 0.00 0.00 68 1012.9
20260905185705 94 306 1.7 5.2 0.00 0.00 0.00 68 1013.0
20260905185135 93 302 1.7 3.5 0.00 0.00 0.00 69 1013.1
20260905184635 93 299 2.6 7.8 0.00 0.00 0.00 66 1013.1
20260905184105 93 288 2.6 7.8 0.00 0.00 0.00 70 1013.0
20260905183535 92 287 2.6 5.2 0.00 0.00 0.00 73 1013.2
20260905182505 90 311 1.7 3.5 0.00 0.00 0.00 75 1013.1
20260905182005 90 287 2.6 7.0 0.00 0.00 0.00 72 1013.2